[[{"header":{"parameterUnit":"m.s-1","parameterCategory":2,"la1":30.2991,"la2":30.254,"lo1":-89.0895,"lo2":-89.0444,"dy":0.0017,"dx":0.0017,"nx":28,"ny":28,"refTime":"2024-03-16T21:00:00:Z","depth":"0","parameterNumber":2,"parameterNumberName":"U-component_of_CURRENTS"},"data":[0,0,0,0,0,0,0,0,0,0,0,0,0,0,0,0,0,0,0,0,0,0,0,0,0,0,0,0,0,0,0,0,0,0,0,0,0,0,0,0,0,0,0,0,0,0,0,0,0,0,0,0,0,0,0,0,0,0,0.2148,0.2149,0,0.2214,0.2215,0.2215,0.2218,0.2218,0.2217,0.2217,0.22,0.22,0.22,0,0,0,0,0,0,0,0,0,0,0,0,0,0.2034,0.2035,0.2148,0.2149,0.215,0.2214,0.2215,0.2215,0.2218,0.2218,0.2217,0.2216,0.22,0.22,0.22,0,0,0,0,0,0,0,0,0,0,0,0,0,0.2087,0.2036,0.2147,0.2162,0.2164,0.2214,0.2215,0.2216,0.2218,0.2218,0.2217,0.2216,0.22,0.22,0.22,0.2214,0,0,0.22,0.22,0,0,0,0,0,0,0,0,0.2084,0.209,0.2158,0.2161,0.2163,0.221,0.2169,0.2212,0.2218,0.2194,0.2217,0.2216,0.2199,0.2199,0.2209,0.2214,0.2213,0.22,0.22,0.22,0.22,0,0,0,0,0,0,0,0.208,0.2088,0.217,0.216,0.2163,0.2169,0.2175,0.2177,0.2195,0.2196,0.2197,0.221,0.2199,0.2209,0.2209,0.2213,0.22,0.22,0.22,0.22,0.2246,0.2247,0,0,0,0,0,0,0.2079,0.2084,0.2168,0.2173,0.2125,0.2172,0.2178,0.2193,0.2197,0.2199,0.2211,0.221,0.221,0.2209,0.2208,0.2241,0.22,0.22,0.22,0.2244,0.2246,0.2247,0,0,0,0,0,0,0.2077,0.2086,0.2166,0.2132,0.2143,0.2175,0.2191,0.2195,0.2208,0.221,0.2209,0.2221,0.2209,0.2208,0.2225,0.224,0.22,0.22,0.2243,0.2245,0.2246,0.2297,0,0,0,0,0,0,0.2073,0.2085,0.2092,0.2133,0.2146,0.2201,0.2192,0.2197,0.2219,0.2219,0.2218,0.2216,0.2208,0.2225,0.2225,0.2239,0.22,0.2241,0.2244,0.2246,0.2294,0.23,0.2306,0,0,0,0,0,0.2069,0.2087,0.2092,0.2102,0.2155,0.2202,0.2209,0.2226,0.222,0.2233,0.2238,0.2216,0.2239,0.2227,0.2226,0.224,0.224,0.2243,0.2246,0.2291,0.2299,0.2305,0,0,0,0,0,0,0.2042,0.2091,0.2096,0.2128,0.2164,0.2204,0.222,0.2231,0.2247,0.2241,0.2235,0.2234,0.2255,0.2244,0.223,0.2261,0.2234,0.2237,0.2269,0.2276,0.2282,0.2261,0.22,0,0,0,0,0,0.204,0.2064,0.2111,0.2135,0.2154,0.2185,0.2205,0.222,0.2243,0.2249,0.2252,0.2255,0.2267,0.2268,0.2275,0.2292,0.2284,0.23,0.2306,0.2311,0.2294,0.2308,0.2313,0.2256,0.2256,0.2256,0,0,0.2037,0.2066,0.208,0.213,0.2156,0.219,0.2195,0.223,0.2252,0.2243,0.2268,0.2277,0.2278,0.2301,0.2308,0.2292,0.233,0.2314,0.2319,0.2298,0.2311,0.2317,0.2321,0.2258,0.2257,0.2257,0,0,0.2047,0.2069,0.2093,0.2125,0.2171,0.2195,0.2207,0.2251,0.2263,0.2295,0.2296,0.2314,0.2329,0.2337,0.2341,0.2382,0.2364,0.2387,0.2396,0.2411,0.2415,0.2418,0.2442,0.2447,0.2387,0.2387,0.2387,0,0.2038,0.2077,0.2107,0.214,0.2167,0.2198,0.223,0.2253,0.2295,0.2305,0.2304,0.234,0.2343,0.237,0.2387,0.2394,0.2401,0.2369,0.2417,0.2421,0.2423,0.2446,0.2451,0.2389,0.2389,0.2389,0.2389,0,0.207,0.2099,0.2118,0.2167,0.2198,0.2233,0.2273,0.2297,0.2312,0.2332,0.2362,0.2378,0.2395,0.2408,0.2409,0.2436,0.2437,0.2427,0.2396,0.2432,0.2454,0.2459,0.2393,0.2392,0.2392,0.2391,0,0,0.2055,0.2126,0.2131,0.2153,0.2215,0.2243,0.2281,0.2323,0.234,0.2372,0.2394,0.2424,0.2428,0.2433,0.2444,0.2453,0.2496,0.2448,0.2448,0.2466,0.2538,0.2659,0.2675,0.2497,0.2498,0.2498,0.2555,0,0.2069,0.2126,0.216,0.2207,0.2241,0.2277,0.2308,0.2344,0.2371,0.24,0.2415,0.2441,0.244,0.2454,0.2467,0.2485,0.2505,0.2481,0.2503,0.2504,0.2603,0.2684,0.2712,0.2776,0.2559,0.256,0.256,0,0.209,0.2125,0.2174,0.2226,0.2242,0.2271,0.2318,0.2351,0.2394,0.2413,0.244,0.2455,0.2484,0.2475,0.2515,0.2502,0.2521,0.2531,0.2534,0.2624,0.2633,0.2701,0.2792,0.2686,0.2567,0.2566,0.2566,0,0.207,0.2133,0.2168,0.219,0.2255,0.2272,0.2304,0.2351,0.2373,0.2423,0.2441,0.2476,0.25,0.2518,0.2565,0.2535,0.2614,0.2576,0.2701,0.2709,0.2725,0.2736,0.2709,0.2601,0.2601,0.2601,0.2601,0,0.2079,0.2106,0.2158,0.218,0.2204,0.2257,0.2286,0.2322,0.237,0.2404,0.2443,0.2485,0.251,0.2566,0.2583,0.2687,0.2637,0.2721,0.2742,0.275,0.2762,0.2663,0.2611,0.2603,0.2603,0.2602,0.2602,0,0.206,0.2101,0.2134,0.2186,0.2199,0.2216,0.2267,0.2284,0.2343,0.2392,0.2409,0.2493,0.2598,0.2648,0.2706,0.2736,0.2751,0.2846,0.2872,0.2897,0.2921,0.2873,0.2762,0.2676,0.2982,0.2985,0.2988,0,0.2058,0.2076,0.2118,0.212,0.2142,0.2174,0.2188,0.2257,0.2285,0.2408,0.2427,0.2559,0.2681,0.2844,0.2951,0.3055,0.288,0.3095,0.3049,0.2953,0.2911,0.2727,0.2645,0.3084,0.3087,0.309,0.3092,0,0.204,0.2051,0.207,0.2076,0.2087,0.2104,0.2142,0.2167,0.2264,0.234,0.2477,0.26,0.2846,0.3015,0.3186,0.3233,0.2983,0.3161,0.3034,0.2987,0.2806,0.2724,0.3009,0.3118,0.3115,0.3113,0.3112,0.3111,0.201,0.2009,0.2024,0.2033,0.2027,0.2035,0.2063,0.2126,0.2206,0.2356,0.249,0.2703,0.2978,0.3275,0.3292,0.3341,0.3213,0.3257,0.3206,0.3024,0.2943,0.3316,0.3473,0.3473,0.3472,0.3472,0.3471,0,0.1992,0.1996,0.1981,0.1987,0.1967,0.1989,0.2029,0.2076,0.2186,0.2367,0.254,0.2873,0.3096,0.3253,0.345,0.3385,0.3166,0.3255,0.2953,0.2867,0.3195,0.3205,0.3345,0.3345,0.3345,0.3346,0.3346,0.3346,0.1984,0.1977,0.1976,0.1942,0.1938,0.1939,0.1972,0.2049,0.2173,0.2401,0.2608,0.279,0.3072,0.332,0.3343,0.3278,0.2954,0.2911,0.2753,0.2965,0.2956,0.2948,0.294,0.3024,0.3023,0.2332,0.2327,0.2323]},{"header":{"parameterUnit":"m.s-1","parameterCategory":2,"la1":30.2991,"la2":30.254,"lo1":-89.0895,"lo2":-89.0444,"dy":0.0017,"dx":0.0017,"nx":28,"ny":28,"refTime":"2024-03-16T21:00:00:Z","depth":"0","parameterNumber":3,"parameterNumberName":"V-component_of_CURRENTS"},"data":[0,0,0,0,0,0,0,0,0,0,0,0,0,0,0,0,0,0,0,0,0,0,0,0,0,0,0,0,0,0,0,0,0,0,0,0,0,0,0,0,0,0,0,0,0,0,0,0,0,0,0,0,0,0,0,0,0,0,-0.081,-0.0811,0,-0.0899,-0.09,-0.0901,-0.0956,-0.0957,-0.0957,-0.0957,-0.106,-0.1062,-0.1064,0,0,0,0,0,0,0,0,0,0,0,0,0,-0.0769,-0.0769,-0.081,-0.0811,-0.0813,-0.0899,-0.09,-0.0901,-0.0956,-0.0957,-0.0957,-0.0957,-0.1059,-0.1062,-0.1064,0,0,0,0,0,0,0,0,0,0,0,0,0,-0.0814,-0.0769,-0.081,-0.0851,-0.0855,-0.0898,-0.09,-0.0901,-0.0956,-0.0957,-0.0957,-0.0958,-0.1058,-0.1061,-0.1065,-0.1077,0,0,-0.1076,-0.1077,0,0,0,0,0,0,0,0,-0.0812,-0.0816,-0.0844,-0.0848,-0.0853,-0.0917,-0.0923,-0.0961,-0.0956,-0.0917,-0.0957,-0.0958,-0.1013,-0.102,-0.1035,-0.1082,-0.1086,-0.1076,-0.1078,-0.108,-0.1081,0,0,0,0,0,0,0,-0.0808,-0.0813,-0.0845,-0.0845,-0.0851,-0.0892,-0.0898,-0.0931,-0.0961,-0.0921,-0.0925,-0.0935,-0.1016,-0.1032,-0.1038,-0.1088,-0.1076,-0.1079,-0.1082,-0.1083,-0.1172,-0.1172,0,0,0,0,0,0,-0.0793,-0.0809,-0.0842,-0.0848,-0.0834,-0.0892,-0.0899,-0.0896,-0.0961,-0.0971,-0.0935,-0.0938,-0.1025,-0.1034,-0.1042,-0.1097,-0.108,-0.1083,-0.1085,-0.1172,-0.1172,-0.1172,0,0,0,0,0,0,-0.0792,-0.0795,-0.0839,-0.0832,-0.084,-0.0891,-0.0888,-0.0897,-0.0914,-0.0971,-0.0982,-0.0942,-0.1026,-0.1037,-0.1077,-0.11,-0.1085,-0.1088,-0.1171,-0.1172,-0.1172,-0.1184,0,0,0,0,0,0,-0.079,-0.0793,-0.078,-0.083,-0.084,-0.086,-0.0888,-0.0899,-0.092,-0.0925,-0.0981,-0.0991,-0.1027,-0.1072,-0.1081,-0.1105,-0.1091,-0.1171,-0.1172,-0.1172,-0.1183,-0.1184,-0.1185,0,0,0,0,0,-0.0788,-0.0769,-0.0779,-0.0783,-0.0822,-0.086,-0.0869,-0.0908,-0.092,-0.0925,-0.0968,-0.099,-0.108,-0.1075,-0.1086,-0.1111,-0.1171,-0.1171,-0.1172,-0.1182,-0.1184,-0.1185,0,0,0,0,0,0,-0.0737,-0.0774,-0.0786,-0.0776,-0.0813,-0.0869,-0.0874,-0.0902,-0.094,-0.0942,-0.0995,-0.1008,-0.1054,-0.1071,-0.1064,-0.1134,-0.1128,-0.113,-0.1132,-0.1134,-0.1135,-0.1138,-0.1094,0,0,0,0,0,-0.0719,-0.0717,-0.0764,-0.0755,-0.077,-0.082,-0.0838,-0.0866,-0.0909,-0.0926,-0.0971,-0.1015,-0.1063,-0.1088,-0.1126,-0.1162,-0.1179,-0.1183,-0.1184,-0.1185,-0.1193,-0.1236,-0.1242,-0.1173,-0.1173,-0.1173,0,0,-0.0698,-0.0716,-0.0715,-0.0745,-0.0774,-0.0811,-0.0832,-0.0855,-0.0894,-0.0931,-0.0985,-0.102,-0.1072,-0.1122,-0.1143,-0.1141,-0.1209,-0.1185,-0.1186,-0.1194,-0.1237,-0.1244,-0.125,-0.1174,-0.1174,-0.1174,0,0,-0.0675,-0.0669,-0.0676,-0.0709,-0.0751,-0.0786,-0.0791,-0.0848,-0.0877,-0.0928,-0.0971,-0.1017,-0.1081,-0.1134,-0.1167,-0.1192,-0.1213,-0.1197,-0.1213,-0.1254,-0.1261,-0.1267,-0.1282,-0.1289,-0.1199,-0.1199,-0.1199,0,-0.065,-0.0669,-0.0683,-0.0712,-0.0743,-0.0776,-0.081,-0.0845,-0.091,-0.094,-0.0942,-0.1054,-0.1094,-0.1176,-0.1191,-0.1199,-0.1213,-0.1207,-0.1257,-0.1264,-0.127,-0.1284,-0.1292,-0.12,-0.1199,-0.1199,-0.1199,0,-0.0658,-0.0676,-0.0681,-0.0732,-0.0758,-0.0787,-0.0842,-0.087,-0.0903,-0.095,-0.102,-0.1075,-0.1142,-0.1163,-0.1192,-0.1258,-0.125,-0.1254,-0.1256,-0.1277,-0.129,-0.1298,-0.12,-0.12,-0.12,-0.12,0,0,-0.0609,-0.0676,-0.0682,-0.0715,-0.0775,-0.08,-0.0849,-0.0914,-0.0947,-0.1006,-0.1058,-0.115,-0.1169,-0.1207,-0.1244,-0.1286,-0.1337,-0.1288,-0.1289,-0.1307,-0.1411,-0.1307,-0.1305,-0.1351,-0.1353,-0.1354,-0.1399,0,-0.0622,-0.0679,-0.0709,-0.0767,-0.0805,-0.0845,-0.0888,-0.0943,-0.0986,-0.1035,-0.11,-0.1157,-0.119,-0.1214,-0.1267,-0.132,-0.1361,-0.1324,-0.1385,-0.1387,-0.1295,-0.1312,-0.1175,-0.1195,-0.1406,-0.1408,-0.1409,0,-0.0641,-0.0675,-0.0734,-0.0798,-0.0815,-0.0847,-0.091,-0.0952,-0.1022,-0.1051,-0.1116,-0.1157,-0.1241,-0.1246,-0.1363,-0.1336,-0.1378,-0.1413,-0.1415,-0.1322,-0.1297,-0.1211,-0.1201,-0.1368,-0.1421,-0.142,-0.1419,0,-0.0628,-0.0698,-0.0742,-0.0769,-0.0838,-0.0863,-0.0895,-0.0959,-0.0976,-0.1055,-0.1056,-0.1174,-0.1191,-0.1294,-0.1355,-0.137,-0.145,-0.1479,-0.1427,-0.142,-0.1317,-0.1296,-0.1479,-0.1559,-0.1559,-0.1558,-0.1558,0,-0.0647,-0.0685,-0.0737,-0.0764,-0.0792,-0.0848,-0.0872,-0.0919,-0.0959,-0.0942,-0.1053,-0.1032,-0.12,-0.1252,-0.1349,-0.1389,-0.1446,-0.1432,-0.1428,-0.1312,-0.1292,-0.1441,-0.1545,-0.156,-0.156,-0.1559,-0.1559,0,-0.064,-0.0684,-0.0725,-0.078,-0.079,-0.0806,-0.0825,-0.0832,-0.088,-0.0853,-0.0866,-0.0933,-0.098,-0.1127,-0.1258,-0.133,-0.1464,-0.1413,-0.1246,-0.1221,-0.133,-0.1437,-0.1574,-0.1651,-0.139,-0.1387,-0.1385,0,-0.065,-0.0671,-0.0706,-0.0697,-0.0718,-0.0736,-0.073,-0.0784,-0.0759,-0.0748,-0.0707,-0.0755,-0.0685,-0.0848,-0.1016,-0.1166,-0.1352,-0.1166,-0.118,-0.132,-0.144,-0.1519,-0.1583,-0.1053,-0.1048,-0.1044,-0.1041,0,-0.0639,-0.0645,-0.0661,-0.0631,-0.0623,-0.0611,-0.0595,-0.0555,-0.0566,-0.0482,-0.0345,-0.0284,-0.0417,-0.0451,-0.069,-0.0827,-0.1241,-0.1092,-0.13,-0.1239,-0.1278,-0.1352,-0.104,-0.1009,-0.1012,-0.1014,-0.1016,-0.1017,-0.0602,-0.0587,-0.0572,-0.0539,-0.0518,-0.0447,-0.0355,-0.0281,-0.0146,0.0085,0.0042,0.0295,0.0068,-0.0199,-0.0475,-0.0901,-0.099,-0.1,-0.1131,-0.121,-0.125,-0.0843,-0.0766,-0.0767,-0.0769,-0.077,-0.0772,0,-0.0499,-0.0484,-0.0466,-0.0397,-0.0308,-0.0334,-0.0215,-0.0046,0.0245,0.0471,0.0702,0.0832,0.0555,0.0102,-0.0487,-0.0848,-0.1056,-0.1093,-0.1224,-0.1303,-0.0979,-0.0929,-0.0806,-0.0806,-0.0806,-0.0805,-0.0805,-0.0805,-0.0434,-0.0363,-0.0352,-0.0186,-0.0125,0.0066,0.0187,0.0441,0.0674,0.1129,0.1402,0.1537,0.1191,0.0012,-0.0851,-0.1088,-0.1419,-0.1404,-0.167,-0.149,-0.1494,-0.1497,-0.1478,-0.1473,-0.1473,-0.19,-0.1905,-0.1908]}],[{"header":{"parameterUnit":"m.s-1","parameterCategory":2,"la1":30.2991,"la2":30.254,"lo1":-89.0895,"lo2":-89.0444,"dy":0.0017,"dx":0.0017,"nx":28,"ny":28,"refTime":"2024-03-16T21:00:00:Z","depth":"2","parameterNumber":2,"parameterNumberName":"U-component_of_CURRENTS"},"data":[0,0,0,0,0,0,0,0,0,0,0,0,0,0,0,0,0,0,0,0,0,0,0,0,0,0,0,0,0,0,0,0,0,0,0,0,0,0,0,0,0,0,0,0,0,0,0,0,0,0,0,0,0,0,0,0,0,0,0.1688,0.1689,0,0.1749,0.175,0.1751,0.1777,0.1777,0.1777,0.1777,0.1804,0.1805,0.1805,0,0,0,0,0,0,0,0,0,0,0,0,0,0.1628,0.1629,0.1688,0.1689,0.169,0.1749,0.175,0.1751,0.1777,0.1777,0.1777,0.1777,0.1804,0.1805,0.1806,0,0,0,0,0,0,0,0,0,0,0,0,0,0.1668,0.1629,0.1688,0.171,0.1713,0.1749,0.175,0.1751,0.1777,0.1777,0.1777,0.1777,0.1803,0.1804,0.1806,0.1815,0,0,0.1809,0.181,0,0,0,0,0,0,0,0,0.1665,0.167,0.1706,0.1709,0.1712,0.1756,0.1739,0.1771,0.1777,0.1752,0.1777,0.1777,0.1785,0.1788,0.1799,0.1816,0.1818,0.1809,0.181,0.1811,0.1811,0,0,0,0,0,0,0,0.1663,0.1668,0.1712,0.1707,0.171,0.1729,0.1734,0.1745,0.1768,0.1754,0.1757,0.1764,0.1786,0.1798,0.18,0.1818,0.1809,0.181,0.1811,0.1812,0.1885,0.1886,0,0,0,0,0,0,0.1654,0.1665,0.171,0.1714,0.1688,0.173,0.1736,0.1741,0.1768,0.1773,0.1764,0.1765,0.1796,0.1799,0.1801,0.1861,0.1811,0.1812,0.1812,0.1884,0.1885,0.1886,0,0,0,0,0,0,0.1653,0.1658,0.1708,0.1691,0.1699,0.1731,0.1737,0.1743,0.1767,0.1776,0.178,0.1784,0.1796,0.1799,0.1826,0.186,0.1812,0.1813,0.1882,0.1884,0.1886,0.1949,0,0,0,0,0,0,0.1651,0.1657,0.1662,0.1691,0.1699,0.1746,0.1738,0.1744,0.1771,0.1774,0.1794,0.1796,0.1796,0.1824,0.1827,0.1861,0.1814,0.1881,0.1883,0.1885,0.1946,0.1953,0.196,0,0,0,0,0,0.1648,0.1654,0.1662,0.1668,0.1704,0.1748,0.1755,0.1776,0.1773,0.1796,0.1803,0.1796,0.1841,0.1826,0.1829,0.1864,0.1879,0.1882,0.1885,0.1943,0.1952,0.1959,0,0,0,0,0,0,0.1628,0.1658,0.1667,0.1681,0.172,0.1753,0.1768,0.1785,0.181,0.1808,0.1811,0.1814,0.1844,0.1846,0.183,0.1891,0.186,0.1863,0.1902,0.1911,0.1918,0.1917,0.1815,0,0,0,0,0,0.1626,0.1648,0.1678,0.1699,0.1708,0.1741,0.176,0.1781,0.1805,0.1816,0.1833,0.1845,0.1857,0.1877,0.1883,0.1923,0.1933,0.1948,0.1955,0.1961,0.1962,0.2002,0.2013,0.1895,0.1895,0.1895,0,0,0.1621,0.1647,0.1656,0.1698,0.172,0.1754,0.1753,0.1789,0.183,0.1814,0.1866,0.1864,0.1869,0.1908,0.1924,0.1918,0.2004,0.1964,0.1969,0.1967,0.2006,0.2017,0.2028,0.1897,0.1897,0.1897,0,0,0.1636,0.1646,0.1669,0.1702,0.1748,0.1772,0.1786,0.1827,0.1855,0.1898,0.1894,0.1916,0.1942,0.1964,0.1972,0.2022,0.2027,0.2027,0.2079,0.2119,0.2129,0.2138,0.2186,0.2199,0.2046,0.2046,0.2046,0,0.1648,0.167,0.1686,0.1722,0.1756,0.1781,0.1822,0.1853,0.1907,0.1935,0.1919,0.1966,0.1969,0.2024,0.204,0.2039,0.2063,0.2048,0.2129,0.2137,0.2145,0.2193,0.2206,0.205,0.2049,0.2049,0.2049,0,0.1663,0.1702,0.1718,0.1775,0.1811,0.1855,0.1896,0.1935,0.1958,0.1991,0.2042,0.2046,0.2077,0.2086,0.2076,0.2145,0.2145,0.2121,0.2108,0.2161,0.2208,0.222,0.2054,0.2053,0.2052,0.2051,0,0,0.1665,0.1726,0.1733,0.1775,0.1849,0.1879,0.1943,0.2012,0.2048,0.209,0.2144,0.2169,0.2169,0.2178,0.2181,0.2218,0.2298,0.2201,0.2202,0.2252,0.2402,0.2395,0.2408,0.2293,0.2295,0.2296,0.242,0,0.1694,0.1762,0.1787,0.1867,0.1911,0.1957,0.2012,0.2073,0.2115,0.2167,0.2191,0.2223,0.2208,0.2217,0.2259,0.2275,0.233,0.2267,0.2341,0.2343,0.2332,0.2422,0.2225,0.2318,0.2432,0.2434,0.2436,0,0.1711,0.176,0.183,0.1926,0.1943,0.1982,0.2069,0.2124,0.2198,0.2232,0.228,0.2285,0.2351,0.231,0.2406,0.2368,0.2395,0.2409,0.2414,0.239,0.2359,0.2279,0.2336,0.2456,0.2455,0.2453,0.2452,0,0.1705,0.1801,0.1858,0.1889,0.198,0.2012,0.2058,0.2136,0.2182,0.2266,0.2298,0.2371,0.2401,0.2447,0.2488,0.2449,0.2587,0.2535,0.2565,0.2565,0.2402,0.2384,0.2609,0.2609,0.2609,0.2609,0.2608,0,0.1739,0.1782,0.1849,0.1873,0.1929,0.2,0.2057,0.2115,0.2195,0.2251,0.2319,0.2376,0.2434,0.2511,0.2533,0.2611,0.2637,0.2597,0.2604,0.2421,0.2405,0.2512,0.2499,0.2613,0.2612,0.2611,0.261,0,0.1713,0.1768,0.1824,0.1901,0.1924,0.1951,0.2032,0.207,0.2165,0.2239,0.2264,0.2396,0.2517,0.259,0.2682,0.2674,0.2734,0.2755,0.2549,0.2529,0.2672,0.2661,0.2791,0.2792,0.2793,0.2793,0.2794,0,0.1699,0.1729,0.18,0.1814,0.1838,0.1892,0.1926,0.2034,0.2083,0.225,0.2282,0.2433,0.2523,0.2692,0.2726,0.2802,0.2822,0.2648,0.253,0.2701,0.2695,0.2682,0.267,0.2346,0.2343,0.2341,0.2338,0,0.166,0.168,0.1709,0.1748,0.1778,0.1822,0.1885,0.1913,0.2049,0.2149,0.2299,0.2383,0.2555,0.256,0.2663,0.2666,0.2614,0.2599,0.2844,0.2334,0.2292,0.2282,0.2283,0.2316,0.2318,0.232,0.2321,0.2322,0.1602,0.1612,0.1653,0.1692,0.1719,0.1749,0.178,0.1839,0.1931,0.2036,0.2189,0.2274,0.2345,0.2414,0.2402,0.2415,0.2568,0.2442,0.2445,0.2452,0.2382,0.2344,0.2365,0.2367,0.237,0.2371,0.2373,0,0.1569,0.16,0.1603,0.165,0.1666,0.171,0.1761,0.1756,0.1828,0.192,0.2029,0.1935,0.1982,0.2081,0.2067,0.2098,0.202,0.2024,0.189,0.1917,0.1941,0.1837,0.168,0.1677,0.1674,0.1672,0,0,0.1551,0.1568,0.1586,0.1612,0.164,0.167,0.1699,0.1638,0.1671,0.1639,0.1691,0.1845,0.1995,0.1778,0.1793,0.1733,0.1792,0.1675,0.224,0.2108,0.2127,0.2208,0.2085,0,0,0,0,0]},{"header":{"parameterUnit":"m.s-1","parameterCategory":2,"la1":30.2991,"la2":30.254,"lo1":-89.0895,"lo2":-89.0444,"dy":0.0017,"dx":0.0017,"nx":28,"ny":28,"refTime":"2024-03-16T21:00:00:Z","depth":"2","parameterNumber":3,"parameterNumberName":"V-component_of_CURRENTS"},"data":[0,0,0,0,0,0,0,0,0,0,0,0,0,0,0,0,0,0,0,0,0,0,0,0,0,0,0,0,0,0,0,0,0,0,0,0,0,0,0,0,0,0,0,0,0,0,0,0,0,0,0,0,0,0,0,0,0,0,-0.004,-0.0041,0,-0.0142,-0.0143,-0.0145,-0.0224,-0.0224,-0.0225,-0.0225,-0.0394,-0.0398,-0.0402,0,0,0,0,0,0,0,0,0,0,0,0,0,-0.0018,-0.0018,-0.004,-0.0041,-0.0042,-0.0142,-0.0144,-0.0145,-0.0224,-0.0224,-0.0225,-0.0225,-0.0392,-0.0397,-0.0402,0,0,0,0,0,0,0,0,0,0,0,0,0,-0.0069,-0.0018,-0.004,-0.0089,-0.0094,-0.0141,-0.0144,-0.0146,-0.0224,-0.0224,-0.0225,-0.0225,-0.039,-0.0397,-0.0403,-0.0435,0,0,-0.0422,-0.0425,0,0,0,0,0,0,0,0,-0.0066,-0.0071,-0.0081,-0.0085,-0.0091,-0.0166,-0.0197,-0.0244,-0.0224,-0.018,-0.0225,-0.0225,-0.032,-0.0332,-0.0357,-0.0443,-0.045,-0.0423,-0.0427,-0.043,-0.0431,0,0,0,0,0,0,0,-0.0062,-0.0067,-0.0086,-0.0081,-0.0088,-0.0141,-0.0148,-0.0207,-0.0252,-0.0184,-0.0189,-0.0191,-0.0324,-0.0351,-0.0362,-0.0453,-0.0423,-0.0429,-0.0432,-0.0435,-0.0568,-0.0567,0,0,0,0,0,0,-0.0033,-0.0063,-0.0083,-0.0088,-0.0073,-0.014,-0.0149,-0.0146,-0.025,-0.0264,-0.0191,-0.0194,-0.034,-0.0354,-0.0368,-0.0436,-0.043,-0.0436,-0.0439,-0.0568,-0.0567,-0.0567,0,0,0,0,0,0,-0.0032,-0.0033,-0.0078,-0.0074,-0.0083,-0.0139,-0.0136,-0.0148,-0.0184,-0.0253,-0.027,-0.0215,-0.0341,-0.0359,-0.0415,-0.0442,-0.0438,-0.0444,-0.0568,-0.0568,-0.0567,-0.0557,0,0,0,0,0,0,-0.0031,-0.0032,-0.0029,-0.0072,-0.0082,-0.0113,-0.0135,-0.0149,-0.0182,-0.0188,-0.028,-0.0295,-0.0342,-0.0404,-0.0421,-0.0451,-0.0449,-0.0569,-0.0568,-0.0567,-0.0557,-0.0556,-0.0555,0,0,0,0,0,-0.0029,-0.0017,-0.0028,-0.0031,-0.0072,-0.0113,-0.0124,-0.0169,-0.0182,-0.0203,-0.025,-0.0293,-0.0412,-0.0409,-0.0429,-0.0461,-0.0569,-0.0568,-0.0568,-0.0558,-0.0556,-0.0555,0,0,0,0,0,0,-0.0007,-0.0025,-0.0038,-0.0032,-0.0072,-0.0124,-0.0135,-0.017,-0.0225,-0.0224,-0.0296,-0.0315,-0.0364,-0.0408,-0.0403,-0.0492,-0.0496,-0.0499,-0.0482,-0.0481,-0.0479,-0.0447,-0.0455,0,0,0,0,0,0.0003,-0.0001,-0.0028,-0.0033,-0.0036,-0.0088,-0.011,-0.0141,-0.0187,-0.0212,-0.0275,-0.0329,-0.0375,-0.0422,-0.046,-0.0527,-0.0533,-0.0555,-0.0554,-0.0552,-0.0536,-0.0568,-0.0569,-0.0565,-0.0565,-0.0565,0,0,0.0014,-0.0003,-0.0002,-0.0031,-0.0055,-0.006,-0.0104,-0.0128,-0.015,-0.0221,-0.0269,-0.0319,-0.0382,-0.0439,-0.0469,-0.0488,-0.0552,-0.0551,-0.055,-0.0534,-0.0568,-0.0568,-0.0569,-0.0564,-0.0564,-0.0565,0,0,0.0038,0.0022,0.0038,0.0018,-0.0011,-0.0048,-0.0052,-0.0103,-0.014,-0.0183,-0.0234,-0.0296,-0.0375,-0.0438,-0.0475,-0.0489,-0.0524,-0.0509,-0.0511,-0.0544,-0.0545,-0.0545,-0.0537,-0.0537,-0.0534,-0.0534,-0.0534,0,0.0039,0.0061,0.003,0.0044,0.003,-0.0035,-0.0025,-0.0069,-0.0143,-0.0171,-0.0185,-0.03,-0.0367,-0.0447,-0.0459,-0.049,-0.0495,-0.052,-0.0543,-0.0544,-0.0545,-0.0537,-0.0537,-0.0534,-0.0534,-0.0534,-0.0534,0,0.01,0.0099,0.0108,0.01,0.0078,0.0066,0.0024,-0.0014,-0.0059,-0.011,-0.018,-0.0269,-0.0342,-0.0386,-0.0434,-0.0495,-0.0489,-0.0519,-0.0549,-0.0545,-0.0536,-0.0536,-0.0533,-0.0533,-0.0533,-0.0533,0,0,0.0124,0.0142,0.0144,0.015,0.0105,0.0097,0.0068,0.0014,0.0006,-0.0084,-0.0111,-0.0232,-0.0292,-0.0335,-0.0424,-0.048,-0.0506,-0.0511,-0.0514,-0.0504,-0.0547,-0.0513,-0.051,-0.0548,-0.0549,-0.0549,-0.0532,0,0.0161,0.021,0.0196,0.0208,0.0224,0.0164,0.0143,0.009,0.0035,-0.0005,-0.0121,-0.0175,-0.0272,-0.0316,-0.0388,-0.0466,-0.0509,-0.0505,-0.055,-0.055,-0.0523,-0.0511,-0.0505,-0.0488,-0.0533,-0.0533,-0.0533,0,0.0222,0.0238,0.0277,0.0267,0.0273,0.0258,0.0222,0.0199,0.0122,0.0087,-0.0003,-0.008,-0.02,-0.0259,-0.0398,-0.0392,-0.0461,-0.0519,-0.052,-0.049,-0.0518,-0.0502,-0.0487,-0.0534,-0.0534,-0.0534,-0.0534,0,0.0267,0.0286,0.0311,0.0312,0.0301,0.0289,0.0267,0.0214,0.0215,0.0133,0.0133,-0.0013,-0.0069,-0.0189,-0.0325,-0.0365,-0.0428,-0.0498,-0.0524,-0.0521,-0.0523,-0.0519,-0.0565,-0.0565,-0.0565,-0.0565,-0.0565,0,0.031,0.033,0.0333,0.0352,0.0376,0.0343,0.0356,0.0324,0.0298,0.0313,0.0171,0.0161,-0.0054,-0.0128,-0.0264,-0.0373,-0.0383,-0.0501,-0.0517,-0.0515,-0.0512,-0.0562,-0.0562,-0.0565,-0.0565,-0.0565,-0.0565,0,0.0367,0.0366,0.0401,0.0402,0.0397,0.042,0.0428,0.0454,0.0409,0.0431,0.0409,0.0298,0.0187,0.0015,-0.0153,-0.0274,-0.0391,-0.0422,-0.0381,-0.0393,-0.0478,-0.0478,-0.0466,-0.0465,-0.0464,-0.0463,-0.0462,0,0.0412,0.043,0.0456,0.048,0.0474,0.0497,0.0519,0.0501,0.0548,0.0522,0.0558,0.0449,0.0422,0.0213,-0.0052,-0.0246,-0.0311,-0.0357,-0.0451,-0.0452,-0.047,-0.0471,-0.0472,-0.0444,-0.0443,-0.0442,-0.0441,0,0.0481,0.0479,0.0517,0.0552,0.0576,0.062,0.0656,0.075,0.0744,0.0785,0.0833,0.0811,0.056,0.0339,0.0051,-0.0097,-0.0335,-0.0348,-0.0362,-0.0464,-0.0428,-0.0446,-0.0449,-0.0435,-0.0436,-0.0436,-0.0437,-0.0437,0.0526,0.0565,0.0584,0.0614,0.0651,0.0723,0.0808,0.0902,0.1016,0.1097,0.1056,0.1008,0.0707,0.0326,0.0061,-0.0259,-0.0266,-0.0387,-0.039,-0.0395,-0.0389,-0.0354,-0.0343,-0.0343,-0.0343,-0.0343,-0.0343,0,0.055,0.0568,0.0634,0.068,0.0734,0.0718,0.0873,0.0989,0.1181,0.1238,0.1274,0.0994,0.0744,0.0393,-0.0081,-0.0321,-0.0374,-0.0396,-0.0436,-0.0438,-0.0442,-0.0442,-0.0409,-0.0409,-0.041,-0.0411,0,0,0.0561,0.0602,0.063,0.0699,0.0744,0.0845,0.0952,0.1155,0.126,0.1363,0.1313,0.122,0.0823,0.0467,0.0107,-0.016,-0.0232,-0.0198,-0.0117,-0.0122,-0.0122,-0.0406,-0.0405,0,0,0,0,0]}],[{"header":{"parameterUnit":"m.s-1","parameterCategory":2,"la1":30.2991,"la2":30.254,"lo1":-89.0895,"lo2":-89.0444,"dy":0.0017,"dx":0.0017,"nx":28,"ny":28,"refTime":"2024-03-16T21:00:00:Z","depth":"4","parameterNumber":2,"parameterNumberName":"U-component_of_CURRENTS"},"data":[0,0,0,0,0,0,0,0,0,0,0,0,0,0,0,0,0,0,0,0,0,0,0,0,0,0,0,0,0,0,0,0,0,0,0,0,0,0,0,0,0,0,0,0,0,0,0,0,0,0,0,0,0,0,0,0,0,0,0.0856,0.0856,0,0.0905,0.0906,0.0907,0.0952,0.0953,0.0953,0.0954,0.1033,0.1035,0.1037,0,0,0,0,0,0,0,0,0,0,0,0,0,0.0789,0.079,0.0856,0.0857,0.0857,0.0905,0.0906,0.0907,0.0952,0.0953,0.0953,0.0954,0.1033,0.1035,0.1037,0,0,0,0,0,0,0,0,0,0,0,0,0,0.0826,0.079,0.0856,0.0885,0.0888,0.0905,0.0906,0.0907,0.0952,0.0953,0.0953,0.0954,0.1032,0.1035,0.1037,0.1036,0,0,0.1044,0.1045,0,0,0,0,0,0,0,0,0.0824,0.0829,0.088,0.0883,0.0887,0.0923,0.0912,0.0952,0.0952,0.0928,0.0954,0.0954,0.0998,0.1004,0.1011,0.104,0.1043,0.1045,0.1046,0.1047,0.1048,0,0,0,0,0,0,0,0.0822,0.0827,0.0876,0.0881,0.0885,0.0892,0.0898,0.0919,0.0959,0.093,0.0933,0.0938,0.1001,0.1009,0.1014,0.1045,0.1045,0.1047,0.1048,0.1049,0.1153,0.1154,0,0,0,0,0,0,0.0815,0.0824,0.0874,0.0877,0.0856,0.0893,0.09,0.0911,0.0958,0.0966,0.0938,0.094,0.1004,0.1011,0.1017,0.1085,0.1047,0.1049,0.1051,0.1152,0.1153,0.1155,0,0,0,0,0,0,0.0813,0.0819,0.0872,0.0851,0.0859,0.0893,0.0905,0.0911,0.0943,0.0963,0.0972,0.0965,0.1005,0.1013,0.1054,0.1086,0.1051,0.1053,0.115,0.1152,0.1154,0.1179,0,0,0,0,0,0,0.0811,0.0818,0.0836,0.0851,0.086,0.0894,0.0905,0.0912,0.0943,0.0948,0.0989,0.0996,0.1006,0.105,0.1056,0.1088,0.1055,0.1149,0.1151,0.1153,0.1176,0.1181,0.1185,0,0,0,0,0,0.0809,0.0819,0.0837,0.0843,0.0879,0.0894,0.09,0.0926,0.0944,0.0958,0.0988,0.0996,0.107,0.1053,0.106,0.1093,0.1147,0.115,0.1153,0.1174,0.118,0.1185,0,0,0,0,0,0,0.08,0.0826,0.0845,0.0865,0.0886,0.0902,0.0918,0.0937,0.0972,0.0985,0.1007,0.1016,0.1068,0.1074,0.1055,0.1131,0.1113,0.1117,0.1126,0.1132,0.1137,0.1147,0.1057,0,0,0,0,0,0.0806,0.0822,0.0847,0.0865,0.0877,0.0903,0.0918,0.0938,0.0963,0.0981,0.1007,0.1042,0.1081,0.1101,0.113,0.1165,0.1185,0.1193,0.1198,0.1202,0.1216,0.1253,0.1262,0.1164,0.1164,0.1164,0,0,0.0804,0.0823,0.0832,0.0865,0.0883,0.0905,0.0915,0.0941,0.0968,0.0983,0.103,0.1061,0.1095,0.114,0.1164,0.1151,0.1245,0.1205,0.1208,0.1221,0.1257,0.1267,0.1275,0.1166,0.1166,0.1166,0,0,0.0799,0.083,0.0841,0.0862,0.0897,0.0916,0.0929,0.0959,0.0985,0.103,0.1054,0.1102,0.1152,0.118,0.1203,0.125,0.1271,0.1266,0.1295,0.1331,0.1339,0.1346,0.1402,0.1414,0.1264,0.1264,0.1264,0,0.0797,0.0823,0.0846,0.0865,0.0886,0.0923,0.0944,0.0974,0.1015,0.1043,0.1052,0.1148,0.1174,0.1236,0.126,0.1262,0.1293,0.1269,0.1336,0.1344,0.1351,0.1406,0.1419,0.1265,0.1265,0.1265,0.1265,0,0.0799,0.083,0.0837,0.0879,0.0904,0.0927,0.0968,0.1005,0.1047,0.1081,0.1156,0.1193,0.1248,0.1269,0.1286,0.1354,0.1365,0.1339,0.1319,0.1363,0.1418,0.1431,0.1267,0.1267,0.1266,0.1266,0,0,0.0761,0.0826,0.0831,0.086,0.0917,0.0934,0.0987,0.1044,0.1092,0.1143,0.1207,0.1277,0.1302,0.1331,0.1352,0.1393,0.1477,0.1396,0.1397,0.1448,0.1582,0.1468,0.1472,0.1463,0.1465,0.1466,0.1605,0,0.0759,0.0795,0.0832,0.0877,0.0903,0.0959,0.1005,0.1065,0.1128,0.1197,0.1254,0.1328,0.1322,0.1367,0.1401,0.1473,0.1511,0.1443,0.1536,0.154,0.1429,0.1482,0.1473,0.1615,0.1618,0.162,0.1622,0,0.0745,0.0779,0.0816,0.0891,0.0908,0.0946,0.1037,0.1084,0.1188,0.1244,0.1317,0.1366,0.1459,0.1436,0.1557,0.1518,0.1554,0.1594,0.1599,0.1493,0.145,0.156,0.1646,0.1644,0.1642,0.1641,0.1639,0,0.0697,0.0766,0.0798,0.0821,0.0908,0.0948,0.1005,0.1102,0.1159,0.1286,0.1353,0.1442,0.1511,0.1571,0.1639,0.1619,0.1763,0.1734,0.1663,0.1657,0.1706,0.1696,0.1801,0.1801,0.1801,0.18,0.18,0,0.0671,0.0699,0.0785,0.0801,0.0861,0.093,0.1008,0.1083,0.1197,0.127,0.1371,0.1437,0.1549,0.1628,0.1675,0.1712,0.1783,0.1689,0.1683,0.1716,0.1706,0.1717,0.1705,0.1805,0.1804,0.1803,0.1802,0,0.0607,0.0662,0.0703,0.0798,0.0838,0.0879,0.1006,0.106,0.1185,0.1287,0.1336,0.1472,0.1586,0.1672,0.1791,0.1749,0.1805,0.1786,0.1846,0.1838,0.1678,0.1667,0.1753,0.175,0.1748,0.1746,0.1744,0,0.0574,0.0589,0.0683,0.0716,0.0765,0.0848,0.0907,0.1042,0.1106,0.1286,0.1327,0.1476,0.1554,0.1644,0.173,0.1818,0.1781,0.1799,0.1714,0.1687,0.1674,0.1666,0.1658,0.174,0.1739,0.1739,0.1738,0,0.051,0.0544,0.0579,0.0654,0.0718,0.0784,0.0884,0.093,0.1082,0.12,0.1301,0.1379,0.1495,0.1587,0.1653,0.17,0.179,0.1773,0.1778,0.1699,0.1673,0.166,0.1654,0.173,0.1731,0.1732,0.1732,0,0.0453,0.0464,0.0518,0.0584,0.0658,0.0711,0.0773,0.0867,0.0952,0.1155,0.1177,0.1343,0.1465,0.1526,0.1589,0.163,0.1616,0.1563,0.1578,0.1589,0.1467,0.1405,0.1391,0,0,0,0,0,0.0391,0.0407,0.0453,0.0516,0.0586,0.064,0.0756,0.0823,0.0974,0.1014,0.1099,0.1203,0.1316,0.1397,0.1415,0.153,0.1621,0.1543,0.1564,0.1683,0.1692,0.1563,0,0,0,0,0,0,0.035,0.0381,0.0421,0.0455,0.049,0.0563,0.0637,0.0736,0.0776,0.0929,0.1001,0.1115,0.1248,0.1291,0.1382,0.1411,0.1399,0.1644,0.1641,0.1677,0.1686,0.1694,0.1564,0,0,0,0,0]},{"header":{"parameterUnit":"m.s-1","parameterCategory":2,"la1":30.2991,"la2":30.254,"lo1":-89.0895,"lo2":-89.0444,"dy":0.0017,"dx":0.0017,"nx":28,"ny":28,"refTime":"2024-03-16T21:00:00:Z","depth":"4","parameterNumber":3,"parameterNumberName":"V-component_of_CURRENTS"},"data":[0,0,0,0,0,0,0,0,0,0,0,0,0,0,0,0,0,0,0,0,0,0,0,0,0,0,0,0,0,0,0,0,0,0,0,0,0,0,0,0,0,0,0,0,0,0,0,0,0,0,0,0,0,0,0,0,0,0,0.0237,0.0236,0,0.0185,0.0184,0.0183,0.0149,0.0149,0.0149,0.0149,0.0067,0.0065,0.0063,0,0,0,0,0,0,0,0,0,0,0,0,0,0.0271,0.0271,0.0237,0.0236,0.0236,0.0185,0.0184,0.0183,0.0149,0.0149,0.0149,0.0148,0.0068,0.0065,0.0063,0,0,0,0,0,0,0,0,0,0,0,0,0,0.024,0.0271,0.0237,0.0213,0.0211,0.0185,0.0184,0.0183,0.0149,0.0149,0.0149,0.0148,0.0069,0.0066,0.0062,0.0047,0,0,0.0053,0.0052,0,0,0,0,0,0,0,0,0.0242,0.0239,0.0217,0.0215,0.0212,0.0174,0.0167,0.0136,0.0149,0.0171,0.0149,0.0148,0.0101,0.0095,0.0085,0.0043,0.0039,0.0053,0.0051,0.005,0.0049,0,0,0,0,0,0,0,0.0244,0.0241,0.0215,0.0217,0.0214,0.0194,0.0189,0.0161,0.0136,0.0169,0.0167,0.0163,0.0099,0.0088,0.0082,0.0038,0.0053,0.005,0.0048,0.0047,-0.0017,-0.0017,0,0,0,0,0,0,0.0256,0.0243,0.0216,0.0213,0.0229,0.0194,0.0188,0.0185,0.0137,0.013,0.0163,0.0162,0.0093,0.0086,0.0079,0.0091,0.005,0.0047,0.0045,-0.0017,-0.0017,-0.0017,0,0,0,0,0,0,0.0256,0.0254,0.0218,0.0228,0.0222,0.0194,0.019,0.0185,0.0176,0.0133,0.0125,0.0161,0.0093,0.0084,0.006,0.0086,0.0045,0.0042,-0.0017,-0.0017,-0.0017,0.0093,0,0,0,0,0,0,0.0258,0.0254,0.0256,0.0229,0.0222,0.0214,0.019,0.0184,0.0174,0.0172,0.0129,0.0121,0.0092,0.0065,0.0057,0.0081,0.004,-0.0017,-0.0017,-0.0017,0.0089,0.0097,0.0104,0,0,0,0,0,0.0259,0.0264,0.0256,0.0253,0.0226,0.0215,0.021,0.0187,0.0175,0.0177,0.0146,0.0122,0.0061,0.0062,0.0053,0.0077,-0.0018,-0.0017,-0.0017,0.0086,0.0095,0.0104,0,0,0,0,0,0,0.0274,0.026,0.0251,0.025,0.0239,0.021,0.0209,0.0193,0.0169,0.0166,0.0123,0.0113,0.0101,0.0067,0.007,0.0056,0.0018,0.0016,0.0099,0.0108,0.0115,0.0142,0.0037,0,0,0,0,0,0.028,0.0287,0.0265,0.0267,0.0262,0.0237,0.0229,0.0216,0.0192,0.0182,0.0153,0.0118,0.0095,0.0084,0.0052,0.0047,0.0011,0.0053,0.0061,0.0067,0.0081,0.0049,0.0055,-0.0015,-0.0015,-0.0015,0,0,0.0287,0.0281,0.0283,0.0272,0.0259,0.0271,0.0231,0.0227,0.0242,0.0176,0.0182,0.014,0.0095,0.0091,0.0083,0.0069,0.0067,0.0068,0.0074,0.0084,0.005,0.0057,0.0063,-0.0015,-0.0015,-0.0015,0,0,0.0316,0.0298,0.032,0.0317,0.0309,0.0294,0.0298,0.0274,0.0269,0.0265,0.0222,0.02,0.0161,0.0143,0.0127,0.0152,0.0102,0.0135,0.0204,0.0173,0.0179,0.0184,0.0147,0.0148,0.0145,0.0145,0.0145,0,0.0326,0.035,0.0323,0.0346,0.0352,0.0312,0.034,0.033,0.0304,0.0304,0.0281,0.023,0.0193,0.0194,0.0205,0.0173,0.0139,0.0181,0.0185,0.0189,0.0193,0.0154,0.0153,0.0151,0.015,0.0149,0.0149,0,0.0376,0.0396,0.0408,0.0429,0.0429,0.0443,0.0429,0.0428,0.0412,0.0398,0.0388,0.0336,0.0306,0.0293,0.0261,0.0268,0.023,0.0197,0.0172,0.0207,0.0163,0.0161,0.0158,0.0156,0.0155,0.0153,0,0,0.0399,0.0438,0.0445,0.0471,0.0475,0.048,0.0506,0.0513,0.0525,0.0501,0.0513,0.048,0.0439,0.0417,0.0368,0.035,0.0345,0.0294,0.029,0.0274,0.027,0.0222,0.0214,0.0311,0.0311,0.0311,0.023,0,0.045,0.0517,0.052,0.0579,0.0607,0.0588,0.0613,0.0612,0.0596,0.0592,0.055,0.0535,0.049,0.0472,0.0451,0.0359,0.0343,0.037,0.0224,0.022,0.0187,0.0212,0.0312,0.0228,0.0227,0.0227,0.0226,0,0.0501,0.054,0.0612,0.0656,0.0665,0.0696,0.0715,0.0732,0.0717,0.07,0.068,0.0628,0.0599,0.055,0.045,0.0465,0.0386,0.0322,0.0316,0.0235,0.0168,0.0182,0.0221,0.0222,0.0222,0.0222,0.0223,0,0.0534,0.0602,0.0663,0.068,0.0722,0.0752,0.0772,0.0771,0.0783,0.0767,0.0759,0.0708,0.0669,0.0583,0.045,0.0447,0.0326,0.0297,0.0186,0.0181,0.0201,0.0196,0.0241,0.0241,0.0241,0.0241,0.0242,0,0.0583,0.0632,0.0688,0.0723,0.0785,0.0799,0.0852,0.0854,0.0859,0.0866,0.0818,0.0795,0.0674,0.0583,0.0472,0.0318,0.034,0.0207,0.0162,0.0246,0.0248,0.0199,0.0195,0.0238,0.0239,0.0239,0.024,0,0.0604,0.0648,0.0715,0.0781,0.0806,0.0847,0.0906,0.0928,0.0933,0.0938,0.0934,0.0855,0.0732,0.0603,0.0439,0.0336,0.02,0.0142,0.0243,0.0204,0.0072,0.0074,0.0017,0.0015,0.0013,0.0012,0.001,0,0.0621,0.0661,0.0749,0.0787,0.0824,0.089,0.0928,0.096,0.0975,0.0963,0.0953,0.0859,0.0784,0.0527,0.0389,0.0179,0.0145,0.0072,0.0083,0.0089,0.0051,0.0057,0.0062,0.0007,0.0007,0.0006,0.0006,0,0.0636,0.0668,0.0717,0.0799,0.0858,0.0919,0.0976,0.0993,0.1012,0.1023,0.095,0.0828,0.0684,0.0502,0.0337,0.0188,0.0119,0.0051,0.0054,0.0064,0.0076,0.0042,0.0049,-0.0001,0.0,0.0001,0.0001,0,0.0632,0.0661,0.0723,0.0788,0.0864,0.0916,0.0958,0.0971,0.0989,0.0976,0.0946,0.0812,0.0739,0.0504,0.0353,0.0201,0.016,0.0103,0.0103,0.0109,0.0156,0.0186,0.0114,0,0,0,0,0,0.0614,0.0641,0.0703,0.0773,0.0847,0.089,0.0965,0.0996,0.1024,0.0968,0.0959,0.0824,0.0593,0.0501,0.0339,0.0313,0.0134,0.0116,0.0069,-0.0038,-0.003,0.0005,0,0,0,0,0,0,0.0601,0.0654,0.0685,0.0742,0.0783,0.0859,0.091,0.0936,0.0907,0.0917,0.0801,0.0756,0.0541,0.0677,0.0324,0.0281,0.0222,0.0021,0.0016,-0.0042,-0.0035,-0.0029,0.001,0,0,0,0,0]}]]